Alva, OK

1:00 PM CDT on June 26, 2017 (GMT -0500)
Alva Regional

Weather History for KAVK - December, 2013

Change the Weather History Date:

Wednesday, December 18, 2013

  Actual Average Record
Temperature  
Mean Temperature 49 °F -  
Max Temperature 68 °F 52 °F 69 °F (1979)
Min Temperature 30 °F 27 °F -7 °F (2016)
Degree Days  
Heating Degree Days 16    
Moisture  
Dew Point 29 °F    
Average Humidity 51    
Maximum Humidity 75    
Minimum Humidity 23    
Precipitation  
Precipitation 0.00 in - - ()
Sea Level Pressure  
Sea Level Pressure 29.96 in    
Wind  
Wind Speed 13 mph (SSW)    
Max Wind Speed 29 mph    
Max Gust Speed 37 mph    
Visibility 10 miles    
Events      
Averages and records for this station are not official NWS values.
T = Trace of Precipitation, MM = Missing Value Source: NWS Daily Summary

Daily Weather History Graph

Daily Weather History Graph

Search for Another Location

Airport or City:

Trip Planner

Search our weather history database for the weather conditions in past years. The results will help you decide how hot, cold, wet, or windy it might be!

Date:

Astronomy

Dec. 18, 2013 Rise Set
Actual Time 7:42 AM CST 5:20 PM CST
Civil Twilight 7:13 AM CST 5:49 PM CST
Nautical Twilight 6:40 AM CST 6:22 PM CST
Astronomical Twilight 6:09 AM CST 6:53 PM CST
Moon 6:51 PM CST (12/18) 8:24 AM CST (12/18)
Length of Visible Light 10h 36m
Length of Day
9h 38m
Full, 98% of the Moon is Illuminated
Dec 18
Full
Dec 25
Last Quarter
Jan 1
New
Jan 7
First Quarter
Jan 15
Full

Hourly Weather History & Observations

Time (CST) Temp. Windchill Dew Point Humidity Pressure Visibility Wind Dir Wind Speed Gust Speed Precip Events Conditions
12:10 AM 32.0 °F 24.8 °F 21.2 °F 64% 30.24 in 10.0 mi WSW 8.1 mph - N/A   Clear
12:30 AM 32.0 °F 26.4 °F 23.0 °F 69% 30.23 in 10.0 mi WSW 5.8 mph - N/A   Clear
12:50 AM 32.0 °F 24.2 °F 21.2 °F 64% 30.21 in 10.0 mi SW 9.2 mph - N/A   Clear
1:10 AM 32.0 °F 23.6 °F 23.0 °F 69% 30.20 in 10.0 mi SW 10.4 mph - N/A   Clear
1:30 AM 32.0 °F 23.0 °F 23.0 °F 69% 30.19 in 10.0 mi SW 11.5 mph - N/A   Clear
1:50 AM 32.0 °F 23.0 °F 23.0 °F 69% 30.18 in 10.0 mi SW 11.5 mph - N/A   Clear
2:10 AM 32.0 °F 23.6 °F 23.0 °F 69% 30.17 in 10.0 mi SW 10.4 mph - N/A   Clear
2:30 AM 32.0 °F 24.8 °F 23.0 °F 69% 30.17 in 10.0 mi SW 8.1 mph - N/A   Clear
2:50 AM 30.2 °F 22.6 °F 23.0 °F 75% 30.16 in 10.0 mi SW 8.1 mph - N/A   Clear
3:10 AM 32.0 °F 22.5 °F 23.0 °F 69% 30.16 in 10.0 mi SSW 12.7 mph - N/A   Clear
3:30 AM 35.6 °F 27.5 °F 24.8 °F 65% 30.16 in 10.0 mi SSW 11.5 mph - N/A   Clear
3:50 AM 35.6 °F 28.0 °F 24.8 °F 65% 30.15 in 10.0 mi SSW 10.4 mph - N/A   Clear
4:10 AM 35.6 °F 28.0 °F 24.8 °F 65% 30.14 in 10.0 mi SSW 10.4 mph - N/A   Clear
4:30 AM 35.6 °F 28.6 °F 24.8 °F 65% 30.13 in 10.0 mi South 9.2 mph - N/A   Clear
4:50 AM 32.0 °F 23.6 °F 23.0 °F 69% 30.12 in 10.0 mi SSW 10.4 mph - N/A   Clear
5:10 AM 32.0 °F 24.2 °F 24.8 °F 75% 30.11 in 10.0 mi South 9.2 mph - N/A   Clear
5:30 AM 32.0 °F 23.6 °F 23.0 °F 69% 30.10 in 10.0 mi South 10.4 mph - N/A   Clear
5:50 AM 32.0 °F 23.6 °F 23.0 °F 69% 30.09 in 10.0 mi South 10.4 mph - N/A   Clear
6:10 AM 32.0 °F 24.8 °F 24.8 °F 75% 30.08 in 10.0 mi South 8.1 mph - N/A   Clear
6:30 AM 32.0 °F 24.2 °F 24.8 °F 75% 30.07 in 10.0 mi SSW 9.2 mph - N/A   Clear
6:50 AM 33.8 °F 25.8 °F 24.8 °F 70% 30.07 in 10.0 mi SSW 10.4 mph - N/A   Clear
7:10 AM 32.0 °F 23.0 °F 24.8 °F 75% 30.07 in 10.0 mi SSW 11.5 mph - N/A   Clear
7:30 AM 32.0 °F 23.0 °F 24.8 °F 75% 30.07 in 9.0 mi SSW 11.5 mph - N/A   Clear
7:50 AM 32.0 °F 21.6 °F 24.8 °F 75% 30.07 in 7.0 mi SSW 15.0 mph - N/A   Clear
8:10 AM 35.6 °F 27.1 °F 26.6 °F 70% 30.06 in 9.0 mi SSW 12.7 mph - N/A   Clear
8:30 AM 35.6 °F 27.1 °F 26.6 °F 70% 30.06 in 8.0 mi SSW 12.7 mph - N/A   Clear
8:50 AM 37.4 °F 29.8 °F 26.6 °F 65% 30.06 in 8.0 mi SSW 11.5 mph - N/A   Clear
9:10 AM 41.0 °F 34.3 °F 28.4 °F 61% 30.05 in 10.0 mi South 11.5 mph - N/A   Clear
9:30 AM 44.6 °F 39.2 °F 30.2 °F 57% 30.05 in 10.0 mi South 10.4 mph - N/A   Clear
9:50 AM 48.2 °F - 32.0 °F 54% 30.05 in 10.0 mi SSW 12.7 mph - N/A   Clear
10:10 AM 53.6 °F - 32.0 °F 44% 30.04 in 10.0 mi SSW 19.6 mph 24.2 mph N/A   Clear
10:30 AM 55.4 °F - 32.0 °F 41% 30.04 in 10.0 mi SSW 19.6 mph - N/A   Clear
10:50 AM 57.2 °F - 32.0 °F 38% 30.02 in 10.0 mi SW 19.6 mph 23.0 mph N/A   Clear
11:10 AM 59.0 °F - 32.0 °F 36% 30.01 in 10.0 mi SW 19.6 mph 28.8 mph N/A   Clear
11:30 AM 60.8 °F - 30.2 °F 31% 30.00 in 10.0 mi SSW 21.9 mph 27.6 mph N/A   Clear
11:50 AM 62.6 °F - 32.0 °F 32% 29.98 in 10.0 mi SSW 19.6 mph 26.5 mph N/A   Clear
12:10 PM 64.4 °F - 30.2 °F 28% 29.95 in 10.0 mi SSW 23.0 mph 31.1 mph N/A   Clear
12:30 PM 64.4 °F - 30.2 °F 28% 29.94 in 10.0 mi SSW 24.2 mph 36.8 mph N/A   Clear
12:50 PM 66.2 °F - 32.0 °F 28% 29.92 in 10.0 mi SSW 28.8 mph 35.7 mph N/A   Clear
1:10 PM 66.2 °F - 30.2 °F 26% 29.91 in 10.0 mi SSW 24.2 mph 35.7 mph N/A   Clear
1:30 PM 66.2 °F - 30.2 °F 26% 29.89 in 10.0 mi SSW 26.5 mph 33.4 mph N/A   Clear
1:50 PM 68.0 °F - 28.4 °F 23% 29.87 in 10.0 mi SSW 20.7 mph 32.2 mph N/A   Clear
2:10 PM 68.0 °F - 30.2 °F 24% 29.86 in 10.0 mi South 18.4 mph 25.3 mph N/A   Clear
2:30 PM 68.0 °F - 30.2 °F 24% 29.84 in 10.0 mi South 23.0 mph - N/A   Clear
2:50 PM 68.0 °F - 28.4 °F 23% 29.82 in 10.0 mi South 19.6 mph 26.5 mph N/A   Clear
3:10 PM 68.0 °F - 28.4 °F 23% 29.82 in 10.0 mi South 25.3 mph 34.5 mph N/A   Clear
3:30 PM 66.2 °F - 28.4 °F 24% 29.82 in 10.0 mi South 17.3 mph - N/A   Clear
3:50 PM 66.2 °F - 28.4 °F 24% 29.82 in 10.0 mi SSW 19.6 mph 25.3 mph N/A   Clear
4:10 PM 64.4 °F - 30.2 °F 28% 29.82 in 10.0 mi South 18.4 mph - N/A   Clear
4:30 PM 64.4 °F - 30.2 °F 28% 29.81 in 10.0 mi South 15.0 mph 21.9 mph N/A   Clear
4:50 PM 62.6 °F - 30.2 °F 30% 29.81 in 10.0 mi South 21.9 mph - N/A   Clear
5:10 PM 59.0 °F - 32.0 °F 36% 29.81 in 10.0 mi South 18.4 mph - N/A   Clear
5:30 PM 57.2 °F - 32.0 °F 38% 29.80 in 10.0 mi South 15.0 mph - N/A   Clear
5:50 PM 55.4 °F - 32.0 °F 41% 29.80 in 10.0 mi South 12.7 mph - N/A   Clear
6:10 PM 53.6 °F - 32.0 °F 44% 29.80 in 10.0 mi South 12.7 mph - N/A   Clear
6:30 PM 51.8 °F - 32.0 °F 47% 29.80 in 10.0 mi SSE 13.8 mph - N/A   Clear
6:50 PM 51.8 °F - 32.0 °F 47% 29.79 in 10.0 mi SSE 16.1 mph - N/A   Clear
7:10 PM 51.8 °F - 32.0 °F 47% 29.79 in 10.0 mi South 13.8 mph - N/A   Clear
7:30 PM 50.0 °F - 32.0 °F 50% 29.80 in 10.0 mi South 12.7 mph - N/A   Clear
7:50 PM 48.2 °F - 32.0 °F 54% 29.79 in 10.0 mi South 11.5 mph - N/A   Partly Cloudy
8:10 PM 50.0 °F - 32.0 °F 50% 29.79 in 10.0 mi South 13.8 mph - N/A   Partly Cloudy
8:30 PM 48.2 °F - 32.0 °F 54% 29.79 in 10.0 mi South 13.8 mph - N/A   Clear
8:50 PM 50.0 °F - 32.0 °F 50% 29.78 in 10.0 mi South 13.8 mph - N/A   Clear
9:10 PM 53.6 °F - 33.8 °F 47% 29.78 in 10.0 mi South 16.1 mph - N/A   Partly Cloudy
9:30 PM 53.6 °F - 33.8 °F 47% 29.78 in 10.0 mi South 17.3 mph - N/A   Clear
9:50 PM 55.4 °F - 35.6 °F 47% 29.77 in 10.0 mi SSW 17.3 mph - N/A   Partly Cloudy
10:10 PM 55.4 °F - 35.6 °F 47% 29.77 in 10.0 mi SSW 17.3 mph - N/A   Clear
10:30 PM 55.4 °F - 37.4 °F 51% 29.76 in 10.0 mi SSW 19.6 mph - N/A   Clear
10:50 PM 57.2 °F - 37.4 °F 48% 29.76 in 10.0 mi SSW 23.0 mph 31.1 mph N/A   Clear
11:10 PM 55.4 °F - 37.4 °F 51% 29.75 in 10.0 mi South 19.6 mph 25.3 mph N/A   Clear
11:30 PM 55.4 °F - 37.4 °F 51% 29.74 in 10.0 mi South 21.9 mph - N/A   Clear
11:50 PM 55.4 °F - 39.2 °F 54% 29.73 in 10.0 mi South 21.9 mph - N/A   Clear